DW6123 Weather Reports


time (UTC)temp
C
wind
direction
speed
KPH
gust
KPH
rain 1hr
cm
rain 24hr
cm
rain mn
cm
humidity
%
barometer
mb
20260507051708 13 214 0.0 3.2 0.00 0.00 0.00 78 1021.3
20260507051208 13 215 0.0 3.2 0.00 0.00 0.00 78 1021.3
20260507050706 13 165 0.0 0.0 0.00 0.00 0.00 78 1021.3
20260507050203 13 165 0.0 1.6 0.00 0.00 0.00 78 1021.4
20260507045704 13 165 0.0 3.2 0.00 0.00 0.00 78 1021.4
20260507045203 13 202 0.0 3.2 0.00 0.00 0.00 78 1021.3
20260507044202 13 186 0.0 3.2 0.00 0.00 0.00 78 1021.3
20260507043703 13 151 1.6 4.8 0.00 0.00 0.00 78 1021.3
20260507043200 13 194 1.6 4.8 0.00 0.00 0.00 78 1021.3
20260507042658 14 217 1.6 4.8 0.00 0.00 0.00 77 1021.2
20260507042158 14 205 0.0 4.8 0.00 0.00 0.00 77 1021.1
20260507041656 14 165 1.6 3.2 0.00 0.00 0.00 77 1021.0
20260507041156 14 144 1.6 6.4 0.00 0.00 0.00 77 1021.0
20260507040656 14 201 1.6 6.4 0.00 0.00 0.00 77 1020.9
20260507040156 14 198 1.6 6.4 0.00 0.00 0.00 77 1020.9
20260507035654 14 174 1.6 6.4 0.00 0.00 0.00 77 1020.9
20260507035154 14 200 1.6 6.4 0.00 0.00 0.00 76 1020.8
20260507034652 14 211 1.6 6.4 0.00 0.00 0.00 76 1020.7
20260507033650 15 152 1.6 6.4 0.00 0.00 0.00 76 1020.6
20260507033150 15 194 1.6 6.4 0.00 0.00 0.00 76 1020.5
20260507032648 15 164 1.6 6.4 0.00 0.00 0.00 76 1020.5
20260507032150 15 8 1.6 6.4 0.00 0.00 0.00 76 1020.4
20260507031649 15 209 1.6 3.2 0.00 0.00 0.00 75 1020.2
20260507031148 15 197 1.6 4.8 0.00 0.00 0.00 75 1020.2
20260507030148 15 161 1.6 6.4 0.00 0.00 0.00 75 1020.1
20260507025150 16 186 1.6 3.2 0.00 0.00 0.00 74 1020.0
20260507024644 16 148 0.0 3.2 0.00 0.00 0.00 74 1019.9
20260507024143 16 188 0.0 4.8 0.00 0.00 0.00 74 1019.9
20260507023644 16 193 1.6 4.8 0.00 0.00 0.00 74 1019.9
20260507023142 16 177 1.6 8.0 0.00 0.00 0.00 73 1019.8
20260507021634 17 176 0.0 3.2 0.00 0.00 0.00 71 1019.7
20260507020628 17 184 1.6 6.4 0.00 0.00 0.00 71 1019.7
20260507020128 17 159 1.6 6.4 0.00 0.00 0.00 70 1019.7
20260507015626 18 190 1.6 4.8 0.00 0.00 0.00 70 1019.7
20260507015126 18 213 0.0 3.2 0.00 0.00 0.00 69 1019.7
20260507014623 18 174 1.6 4.8 0.00 0.00 0.00 70 1019.8
20260507014123 18 169 1.6 4.8 0.00 0.00 0.00 69 1019.8
20260507013622 18 359 1.6 4.8 0.00 0.00 0.00 70 1019.9
20260507013121 17 184 1.6 4.8 0.00 0.00 0.00 70 1019.9
20260507012621 18 270 1.6 4.8 0.00 0.00 0.00 70 1019.9
20260507011614 18 224 1.6 6.4 0.00 0.00 0.00 68 1019.9
20260507011112 19 210 1.6 8.0 0.00 0.00 0.00 67 1019.9
20260507010112 20 161 1.6 6.4 0.00 0.00 0.00 66 1019.8
20260507005610 20 177 1.6 6.4 0.00 0.00 0.00 65 1019.8
20260507004109 20 199 1.6 4.8 0.00 0.00 0.00 66 1019.8
20260507003601 20 181 1.6 4.8 0.00 0.00 0.00 66 1019.7
20260507003101 20 176 1.6 4.8 0.00 0.00 0.00 64 1019.7
20260507002601 21 198 1.6 6.4 0.00 0.00 0.00 64 1019.7
20260507002100 21 189 1.6 6.4 0.00 0.00 0.00 66 1019.7
20260507001557 20 208 1.6 4.8 0.00 0.00 0.00 66 1019.6
20260507001055 20 98 1.6 4.8 0.00 0.00 0.00 67 1019.7
20260507000556 21 158 1.6 3.2 0.00 0.00 0.00 66 1019.7
20260507000056 20 172 1.6 4.8 0.00 0.00 0.00 67 1019.7
20260506235553 20 162 1.6 4.8 0.00 0.00 0.00 67 1019.7
20260506235054 21 158 1.6 6.4 0.00 0.00 0.00 68 1019.7
20260506234552 21 176 1.6 6.4 0.00 0.00 0.00 67 1019.6
20260506234052 21 188 0.0 1.6 0.00 0.00 0.00 67 1019.6
20260506233549 21 186 0.0 3.2 0.00 0.00 0.00 67 1019.6
20260506233050 21 179 0.0 3.2 0.00 0.00 0.00 67 1019.5
20260506232548 21 193 1.6 4.8 0.00 0.00 0.00 67 1019.5
20260506232048 21 193 1.6 4.8 0.00 0.00 0.00 67 1019.5
20260506231546 21 196 0.0 4.8 0.00 0.00 0.00 65 1019.5
20260506231044 21 167 0.0 4.8 0.00 0.00 0.00 64 1019.6
20260506230544 21 167 0.0 3.2 0.00 0.00 0.00 64 1019.6
20260506230040 21 167 0.0 1.6 0.00 0.00 0.00 64 1019.7
20260506225537 21 167 1.6 4.8 0.00 0.00 0.00 64 1019.7
20260506224536 20 139 1.6 4.8 0.00 0.00 0.00 66 1019.8
20260506224035 20 131 1.6 4.8 0.00 0.00 0.00 66 1019.9
20260506223033 20 167 0.0 3.2 0.00 0.00 0.00 67 1020.0
20260506222032 20 177 0.0 4.8 0.00 0.00 0.00 68 1020.0
20260506221526 20 177 1.6 8.0 0.00 0.00 0.00 69 1020.1
20260506220522 20 199 1.6 6.4 0.00 0.00 0.00 68 1020.0
20260506220020 20 187 1.6 4.8 0.00 0.00 0.00 67 1020.1
20260506215520 20 169 1.6 6.4 0.00 0.00 0.00 66 1020.1
20260506215020 20 79 1.6 12.9 0.00 0.00 0.00 67 1020.1
20260506214519 20 176 3.2 12.9 0.00 0.00 0.00 68 1020.1
20260506214019 20 122 3.2 9.7 0.00 0.00 0.00 69 1020.0
20260506213520 20 108 3.2 8.0 0.00 0.00 0.00 68 1020.1
20260506213017 19 155 1.6 9.7 0.00 0.00 0.00 70 1020.2
20260506212517 19 150 1.6 9.7 0.00 0.00 0.00 70 1020.1
20260506211515 18 103 1.6 8.0 0.00 0.00 0.00 71 1020.4
20260506211014 18 142 1.6 4.8 0.00 0.00 0.00 71 1020.5
20260506210514 18 15 1.6 4.8 0.00 0.00 0.00 70 1020.6
20260506210013 18 137 1.6 4.8 0.00 0.00 0.00 71 1020.6
20260506205512 18 146 1.6 6.4 0.00 0.00 0.00 71 1020.6
20260506205009 18 147 3.2 9.7 0.00 0.00 0.00 71 1020.6
20260506204510 18 129 1.6 9.7 0.00 0.00 0.00 72 1020.6
20260506203506 18 188 0.0 3.2 0.00 0.00 0.00 73 1020.6
20260506203005 18 189 1.6 3.2 0.00 0.00 0.00 72 1020.5
20260506202440 17 181 1.6 4.8 0.00 0.00 0.00 74 1020.5
20260506201939 17 143 1.6 6.4 0.00 0.00 0.00 74 1020.5
20260506201439 17 149 1.6 6.4 0.00 0.00 0.00 75 1020.5
20260506200939 17 112 1.6 4.8 0.00 0.00 0.00 75 1020.6
20260506200439 17 144 1.6 6.4 0.00 0.00 0.00 74 1020.7
20260506195937 17 145 1.6 6.4 0.00 0.00 0.00 75 1020.8
20260506194938 17 181 0.0 4.8 0.00 0.00 0.00 75 1020.8
20260506194436 17 181 1.6 4.8 0.00 0.00 0.00 76 1020.9
20260506193933 17 122 0.0 4.8 0.00 0.00 0.00 75 1020.9
20260506193433 17 156 0.0 0.0 0.00 0.00 0.00 74 1021.0
20260506192934 17 189 0.0 0.0 0.00 0.00 0.00 76 1021.0
20260506192432 17 190 0.0 1.6 0.00 0.00 0.00 75 1021.1
20260506191929 17 200 0.0 1.6 0.00 0.00 0.00 75 1021.1
20260506191427 17 200 0.0 1.6 0.00 0.00 0.00 76 1021.0
20260506190929 16 200 0.0 4.8 0.00 0.00 0.00 77 1020.9
20260506190424 16 200 0.0 4.8 0.00 0.00 0.00 77 1020.9
20260506185921 16 153 1.6 3.2 0.00 0.00 0.00 78 1020.9
20260506185420 16 150 1.6 6.4 0.00 0.00 0.00 77 1020.9
20260506184914 16 150 3.2 9.7 0.00 0.00 0.00 78 1020.9
20260506184413 16 143 3.2 9.7 0.00 0.00 0.00 77 1020.9
20260506183913 16 168 0.0 3.2 0.00 0.00 0.00 78 1020.9
20260506183411 16 169 0.0 6.4 0.00 0.00 0.00 79 1020.9
20260506182911 16 148 1.6 9.7 0.00 0.00 0.00 79 1020.8
20260506182412 15 141 1.6 9.7 0.00 0.00 0.00 79 1020.8
20260506181914 15 223 1.6 4.8 0.00 0.00 0.00 80 1020.8
20260506181411 15 192 0.0 4.8 0.00 0.00 0.00 80 1020.9
20260506180910 15 161 0.0 1.6 0.00 0.00 0.00 81 1021.0
20260506180408 15 160 0.0 1.6 0.00 0.00 0.00 82 1020.9
20260506175408 15 161 0.0 1.6 0.00 0.00 0.00 81 1020.9
20260506174907 15 161 0.0 0.0 0.00 0.00 0.00 81 1020.9
20260506174408 15 161 0.0 3.2 0.00 0.00 0.00 82 1021.0
20260506173906 15 160 0.0 3.2 0.00 0.00 0.00 83 1020.9
20260506173404 15 159 0.0 3.2 0.00 0.00 0.00 82 1020.8
20260506172901 15 159 0.0 3.2 0.00 0.00 0.00 82 1020.8
20260506172359 15 169 0.0 1.6 0.00 0.00 0.00 82 1020.8
20260506171857 15 168 0.0 1.6 0.00 0.00 0.00 83 1020.7
20260506171355 15 168 0.0 1.6 0.00 0.00 0.00 82 1020.7
20260506170853 14 171 0.0 3.2 0.00 0.00 0.00 83 1020.6
20260506170353 14 155 0.0 3.2 0.00 0.00 0.00 82 1020.6
20260506165852 14 199 0.0 0.0 0.00 0.00 0.00 83 1020.6
20260506164348 14 153 0.0 0.0 0.00 0.00 0.00 82 1020.9
20260506163847 14 153 0.0 0.0 0.00 0.00 0.00 83 1020.8
20260506163347 14 153 0.0 0.0 0.00 0.00 0.00 83 1020.7
20260506162846 14 153 0.0 0.0 0.00 0.00 0.00 83 1020.8
20260506162346 14 148 0.0 0.0 0.00 0.00 0.00 83 1020.8
20260506161843 14 148 0.0 3.2 0.00 0.00 0.00 83 1020.9
20260506161345 14 133 0.0 3.2 0.00 0.00 0.00 83 1020.8
20260506160840 14 165 0.0 1.6 0.00 0.00 0.00 83 1020.6
20260506160339 14 165 0.0 3.2 0.00 0.00 0.00 83 1020.4
20260506155837 13 162 0.0 3.2 0.00 0.00 0.00 83 1020.5
20260506155337 14 186 0.0 0.0 0.00 0.00 0.00 83 1020.4
20260506154837 14 186 0.0 0.0 0.00 0.00 0.00 83 1020.1
20260506154335 13 176 0.0 0.0 0.00 0.00 0.00 84 1020.2
20260506153834 13 176 0.0 0.0 0.00 0.00 0.00 84 1020.0
20260506153333 13 176 0.0 0.0 0.00 0.00 0.00 85 1019.8
20260506152332 13 200 0.0 0.0 0.00 0.00 0.00 85 1019.9
20260506151832 13 200 0.0 0.0 0.00 0.00 0.00 85 1020.4
20260506150831 13 205 0.0 0.0 0.00 0.00 0.00 85 1020.6
20260506150331 13 205 0.0 0.0 0.00 0.00 0.00 85 1020.7
20260506145830 13 205 0.0 0.0 0.00 0.00 0.00 85 1020.7
20260506145324 13 205 0.0 0.0 0.00 0.00 0.00 85 1020.7
20260506144822 13 205 0.0 0.0 0.00 0.00 0.00 84 1020.6
20260506144321 13 205 0.0 0.0 0.00 0.00 0.00 85 1020.6
20260506143819 13 205 0.0 0.0 0.00 0.00 0.00 84 1020.5
20260506143320 13 205 0.0 0.0 0.00 0.00 0.00 84 1020.4
20260506142814 13 205 0.0 0.0 0.00 0.00 0.00 84 1020.5
20260506141751 13 178 0.0 0.0 0.00 0.00 0.00 84 1020.0
20260506141252 13 190 0.0 0.0 0.00 0.00 0.00 85 1019.7
20260506140751 13 190 0.0 0.0 0.00 0.00 0.00 85 1019.6
20260506140251 13 190 0.0 0.0 0.00 0.00 0.00 85 1019.6
20260506135241 13 190 0.0 0.0 0.00 0.00 0.00 85 1019.6
20260506134740 13 190 0.0 0.0 0.00 0.00 0.00 85 1019.6
20260506134240 13 190 0.0 0.0 0.00 0.00 0.00 85 1019.6
20260506133738 13 190 0.0 0.0 0.00 0.00 0.00 85 1019.5
20260506133235 13 190 0.0 0.0 0.00 0.00 0.00 85 1019.5
20260506132733 13 190 0.0 0.0 0.00 0.00 0.00 85 1019.5
20260506132231 13 190 0.0 0.0 0.00 0.00 0.00 85 1019.4
20260506131728 13 191 0.0 0.0 0.00 0.00 0.00 85 1019.4
20260506131229 13 190 0.0 0.0 0.00 0.00 0.00 85 1019.4
20260506130726 13 191 0.0 0.0 0.00 0.00 0.00 85 1019.3
20260506130224 13 190 0.0 0.0 0.00 0.00 0.00 85 1019.2
20260506125722 13 190 0.0 0.0 0.00 0.00 0.00 85 1019.1
20260506125222 13 190 0.0 0.0 0.00 0.00 0.00 85 1019.0
20260506124721 13 190 0.0 0.0 0.00 0.00 0.00 84 1019.0
20260506124221 13 190 0.0 0.0 0.00 0.00 0.00 84 1019.0
20260506123719 13 190 0.0 0.0 0.00 0.00 0.00 84 1018.9
20260506123219 13 190 0.0 0.0 0.00 0.00 0.00 84 1018.8
20260506122215 13 190 0.0 0.0 0.00 0.00 0.00 84 1019.0
20260506121711 13 190 0.0 0.0 0.00 0.00 0.00 84 1019.1
20260506121211 13 190 0.0 0.0 0.00 0.00 0.00 84 1019.0
20260506120711 13 190 0.0 0.0 0.00 0.00 0.00 84 1019.0
20260506115710 13 190 0.0 0.0 0.00 0.00 0.00 83 1018.9
20260506115208 13 190 0.0 0.0 0.00 0.00 0.00 83 1018.9
20260506114709 13 190 0.0 0.0 0.00 0.00 0.00 83 1018.9
20260506114212 13 190 0.0 0.0 0.00 0.00 0.00 83 1018.8
20260506113707 13 190 0.0 0.0 0.00 0.00 0.00 83 1018.8
20260506113204 13 190 0.0 0.0 0.00 0.00 0.00 83 1018.7
20260506112705 13 190 0.0 0.0 0.00 0.00 0.00 83 1018.7
20260506112205 13 190 0.0 0.0 0.00 0.00 0.00 83 1018.6
20260506111702 13 190 0.0 0.0 0.00 0.00 0.00 83 1018.6
20260506111159 13 190 0.0 0.0 0.00 0.00 0.00 83 1018.6
20260506110658 13 191 0.0 0.0 0.00 0.00 0.00 83 1018.5
20260506110155 13 190 0.0 0.0 0.00 0.00 0.00 83 1018.4
20260506105154 13 190 0.0 0.0 0.00 0.00 0.00 83 1018.2
20260506104654 13 190 0.0 0.0 0.00 0.00 0.00 83 1018.2
20260506104151 13 190 0.0 0.0 0.00 0.00 0.00 83 1018.2
20260506103653 13 190 0.0 0.0 0.00 0.00 0.00 83 1018.1
20260506103149 14 190 0.0 0.0 0.00 0.00 0.00 83 1018.0
20260506102650 14 190 0.0 0.0 0.00 0.00 0.00 83 1017.9
20260506102147 14 190 0.0 0.0 0.00 0.00 0.00 83 1017.9
20260506101648 14 190 0.0 0.0 0.00 0.00 0.00 83 1017.8
20260506101147 14 190 0.0 0.0 0.00 0.00 0.00 83 1017.8
20260506095146 14 190 0.0 0.0 0.00 0.00 0.00 82 1017.6
20260506094639 14 190 0.0 0.0 0.00 0.00 0.00 82 1017.6
20260506094137 14 190 0.0 0.0 0.00 0.00 0.00 82 1017.6
20260506093637 14 190 0.0 0.0 0.00 0.00 0.00 82 1017.5
20260506093135 14 190 0.0 0.0 0.00 0.00 0.00 82 1017.5
20260506092635 14 190 0.0 0.0 0.00 0.00 0.00 82 1017.5
20260506092135 14 190 0.0 0.0 0.00 0.00 0.00 82 1017.5
20260506091638 14 190 0.0 0.0 0.00 0.00 0.00 82 1017.5
20260506091135 15 190 0.0 0.0 0.00 0.00 0.00 82 1017.5
20260506090634 15 190 0.0 0.0 0.00 0.00 0.00 82 1017.5
20260506090132 15 190 0.0 0.0 0.00 0.00 0.00 82 1017.4
20260506085631 15 190 0.0 0.0 0.00 0.00 0.00 83 1017.4
20260506085129 15 190 0.0 0.0 0.00 0.00 0.00 83 1017.4
20260506084630 15 190 0.0 0.0 0.00 0.00 0.00 82 1017.4
20260506084123 15 190 0.0 0.0 0.00 0.00 0.00 82 1017.4
20260506083624 15 190 0.0 0.0 0.00 0.00 0.00 82 1017.4
20260506083122 15 191 0.0 0.0 0.00 0.00 0.00 82 1017.4
20260506082622 15 190 0.0 0.0 0.00 0.00 0.00 82 1017.4
20260506082119 15 190 0.0 0.0 0.00 0.00 0.00 82 1017.4
20260506081119 15 190 0.0 0.0 0.00 0.00 0.00 82 1017.4
20260506080618 15 190 0.0 0.0 0.00 0.00 0.00 82 1017.3
20260506080119 15 190 0.0 0.0 0.00 0.00 0.00 82 1017.3
20260506073112 15 190 0.0 0.0 0.00 0.00 0.00 81 1017.1
20260506072613 15 190 0.0 0.0 0.00 0.00 0.00 80 1017.0
20260506072111 15 190 0.0 0.0 0.00 0.00 0.00 80 1017.0
20260506071613 15 190 0.0 0.0 0.00 0.00 0.00 80 1017.0
20260506071111 15 190 0.0 0.0 0.00 0.00 0.00 80 1017.0
20260506070611 15 190 0.0 0.0 0.00 0.00 0.00 80 1017.0
20260506070111 15 190 0.0 0.0 0.00 0.00 0.00 80 1017.0
20260506062106 15 190 0.0 0.0 0.00 0.00 0.00 80 1016.8
20260506061606 15 191 0.0 0.0 0.00 0.00 0.00 80 1016.8
20260506060559 15 190 0.0 0.0 0.00 0.00 0.00 80 1016.8